Time_in_sec,Latitude,Longitude,Altitude,Nbsat_max_qualitysignal,Nbsat_locked,valid_data
1323443415.40554166,47.37537384,8.55000782,498.77099609,0,7,1
1323443564.45348573,47.37541580,8.55008316,505.80667114,4,10,1
1323443564.50451469,47.37541580,8.55008316,505.76116943,4,10,1
1323443564.55351734,47.37541580,8.55008316,505.81378174,4,10,1
1323443564.60448933,47.37541580,8.55008316,505.86639404,4,10,1
1323443564.65253615,47.37541580,8.55008316,505.91894531,4,10,1
1323443564.70521879,47.37541580,8.55008316,505.97143555,4,10,1
1323443564.75323844,47.37541580,8.55008316,505.90783691,4,10,1
1323443564.80550599,47.37541580,8.55008316,505.95971680,4,10,1
1323443564.85251355,47.37541580,8.55008316,506.01153564,4,10,1
1323443564.90463328,47.37541580,8.55008316,506.06332397,4,10,1
1323443564.95352626,47.37541580,8.55008316,506.11505127,6,9,1
1323443565.00456548,47.37541580,8.55008221,506.04385376,6,9,1
1323443565.05334091,47.37541580,8.55008221,506.09497070,6,9,1
1323443565.10556006,47.37541580,8.55008221,506.14602661,6,9,1
1323443565.15322304,47.37541580,8.55008221,506.19705200,6,9,1
1323443565.20548701,47.37541580,8.55008221,506.24801636,6,9,1
1323443565.25252700,47.37541580,8.55008221,506.16293335,6,9,1
1323443565.30462575,47.37541580,8.55008221,506.21322632,6,9,1
1323443565.35353351,47.37541580,8.55008221,506.26348877,6,9,1
1323443565.40508866,47.37541580,8.55008221,506.31372070,6,9,1
1323443565.45296240,47.37541580,8.55008221,506.36395264,6,9,1
1323443565.50494671,47.37541580,8.55008316,506.25683594,6,9,1
1323443565.55253243,47.37541580,8.55008316,506.30621338,6,9,1
1323443565.60494351,47.37541580,8.55008316,506.35556030,6,9,1
1323443565.65292311,47.37541580,8.55008316,506.40490723,6,9,1
1323443565.70566583,47.37541580,8.55008316,506.45419312,6,9,1
1323443565.75349903,47.37541580,8.55008221,506.34295654,6,9,1
1323443565.80550504,47.37541580,8.55008221,506.39147949,6,9,1
1323443565.85257339,47.37541580,8.55008221,506.43994141,6,9,1
1323443565.90552878,47.37541580,8.55008221,506.48840332,6,9,1
1323443565.95251369,47.37541580,8.55008221,506.53680420,6,9,1
1323443566.00551677,47.37541580,8.55008316,506.41744995,6,9,1
1323443566.06566525,47.37541580,8.55008316,506.46505737,6,9,1
1323443566.10463190,47.37541580,8.55008316,506.52218628,6,9,1
1323443566.15352893,47.37541580,8.55008316,506.56024170,6,9,1
1323443566.20167470,47.37541580,8.55008316,506.60778809,6,9,1
1323443566.25266504,47.37541962,8.55008316,506.48785400,6,9,1
1323443566.30467653,47.37541962,8.55008316,506.53460693,6,9,1
1323443566.35355377,47.37541962,8.55008316,506.58135986,6,9,1
1323443566.40550280,47.37541962,8.55008316,506.62805176,6,9,1
1323443566.45353365,47.37541962,8.55008316,506.67474365,6,9,1
1323443566.50466728,47.37541962,8.55008507,506.54714966,6,9,1
1323443566.55352044,47.37541962,8.55008507,506.59298706,6,9,1
1323443566.60554647,47.37541962,8.55008507,506.63882446,6,9,1
1323443566.65389156,47.37541962,8.55008507,506.68463135,6,9,1
1323443566.70454097,47.37541962,8.55008507,506.73040771,6,9,1
1323443566.75264335,47.37541962,8.55008411,506.61083984,6,9,1
1323443566.80552554,47.37541962,8.55008411,506.65579224,6,9,1
1323443566.85251045,47.37541962,8.55008411,506.70071411,6,9,1
1323443566.90397954,47.37541962,8.55008411,506.74560547,6,9,1
1323443566.95361948,47.37541962,8.55008411,506.79046631,5,8,1
1323443567.00551152,47.37541962,8.55008316,506.66995239,5,8,1
1323443567.05258679,47.37541962,8.55008316,506.71398926,5,8,1
1323443567.10552025,47.37541962,8.55008316,506.75799561,5,8,1
1323443567.15253401,47.37541962,8.55008316,506.80200195,5,8,1
1323443567.20551443,47.37541962,8.55008316,506.84594727,5,8,1
1323443567.25252938,47.37541962,8.55008221,506.73086548,5,8,1
1323443567.30450821,47.37541962,8.55008221,506.77404785,5,8,1
1323443567.35362625,47.37541962,8.55008221,506.81719971,5,8,1
1323443567.40446019,47.37541962,8.55008221,506.86032104,5,8,1
1323443567.45353794,47.37541962,8.55008221,506.90341187,5,8,1
1323443567.50453115,47.37541962,8.55008221,506.80136108,5,8,1
1323443567.55251908,47.37541962,8.55008221,506.84378052,5,8,1
1323443567.60550308,47.37541962,8.55008221,506.88619995,5,8,1
1323443567.66528273,47.37541962,8.55008221,506.92855835,5,8,1
1323443567.70675111,47.37541962,8.55008221,506.97937012,5,8,1
1323443567.75401449,47.37541962,8.55008316,506.86602783,5,8,1
1323443567.80555606,47.37541962,8.55008316,506.90759277,5,8,1
1323443567.85256505,47.37541962,8.55008316,506.94915771,5,8,1
1323443567.90511680,47.37541962,8.55008316,506.99069214,5,8,1
1323443567.95270777,47.37541962,8.55008316,507.03222656,5,8,1
1323443568.00549889,47.37541962,8.55008221,506.92947388,5,8,1
1323443568.05353713,47.37541962,8.55008221,506.97027588,5,8,1
1323443568.10465026,47.37541962,8.55008221,507.01104736,5,8,1
1323443568.15353894,47.37541962,8.55008221,507.05181885,5,8,1
1323443568.20451331,47.37541962,8.55008221,507.09255981,5,8,1
1323443568.25254345,47.37541962,8.55008221,506.99859619,5,8,1
1323443568.30516458,47.37541962,8.55008221,507.03866577,5,8,1
1323443568.35261154,47.37541962,8.55008221,507.07870483,5,8,1
1323443568.40550995,47.37541962,8.55008221,507.11874390,5,8,1
1323443568.46510911,47.37541962,8.55008221,507.15875244,5,8,1
1323443568.50565982,47.37541962,8.55008221,507.07720947,5,8,1
1323443568.55350137,47.37541962,8.55008221,507.10870361,5,8,1
1323443568.60465360,47.37541962,8.55008125,507.14804077,5,8,1
1323443568.65265036,47.37541962,8.55008125,507.18731689,5,8,1
1323443568.71283507,47.37541962,8.55008125,507.22659302,5,8,1
1323443568.75264883,47.37541962,8.55008125,507.14212036,5,8,1
1323443568.80549788,47.37541962,8.55008125,507.17300415,5,8,1
1323443568.85252285,47.37541962,8.55008125,507.21160889,5,8,1
1323443568.90563989,47.37541962,8.55008125,507.25015259,5,8,1
1323443568.95757437,47.37541962,8.55008125,507.28866577,5,8,1
1323443569.00595355,47.37541962,8.55008125,507.19506836,5,8,1
1323443569.05300140,47.37541962,8.55008125,507.23291016,5,8,1
1323443569.10566902,47.37541962,8.55008125,507.27075195,5,8,1
1323443569.15251827,47.37541962,8.55008125,507.30856323,5,8,1
1323443569.20550752,47.37541962,8.55008125,507.34631348,5,8,1
1323443569.25269246,47.37541962,8.55008221,507.24719238,5,8,1
1323443569.30465674,47.37541962,8.55008221,507.28430176,5,8,1
1323443569.35359192,47.37541962,8.55008221,507.32138062,5,8,1
1323443569.40454650,47.37541962,8.55008221,507.35842896,5,8,1
1323443569.45354104,47.37541962,8.55008221,507.39544678,5,8,1
1323443569.50551009,47.37541962,8.55008221,507.28283691,5,8,1
1323443569.55266047,47.37541962,8.55008221,507.31912231,5,8,1
1323443569.60566401,47.37541962,8.55008221,507.35534668,5,8,1
1323443569.65265918,47.37541962,8.55008221,507.39160156,5,8,1
1323443569.70464754,47.37541962,8.55008221,507.42779541,5,8,1
1323443569.75354528,47.37541962,8.55008316,507.31469727,5,8,1
1323443569.80463886,47.37541962,8.55008316,507.35021973,5,8,1
1323443569.85258031,47.37541962,8.55008316,507.38568115,5,8,1
1323443569.90542340,47.37541962,8.55008316,507.42114258,5,8,1
1323443569.95350623,47.37541962,8.55008316,507.45654297,5,8,1
1323443570.00548410,47.37541962,8.55008411,507.33624268,5,8,1
1323443570.05267334,47.37541962,8.55008411,507.37091064,5,8,1
1323443570.10555911,47.37541962,8.55008411,507.40557861,5,8,1
1323443570.15354776,47.37541962,8.55008411,507.44021606,5,8,1
1323443570.20555925,47.37541962,8.55008411,507.47479248,5,8,1
1323443570.25308609,47.37541962,8.55008507,507.34051514,5,8,1
1323443570.30542779,47.37541962,8.55008507,507.37429810,5,8,1
1323443570.35255098,47.37541962,8.55008507,507.40802002,5,8,1
1323443570.40550637,47.37541962,8.55008507,507.44174194,5,8,1
1323443570.45464420,47.37541962,8.55008507,507.47540283,5,8,1
1323443570.50613999,47.37541962,8.55008602,507.31933594,5,8,1
1323443570.55352187,47.37541962,8.55008602,507.35211182,5,8,1
1323443570.60578418,47.37541962,8.55008602,507.38485718,5,8,1
1323443570.65256524,47.37541962,8.55008602,507.41760254,5,8,1
1323443570.70558596,47.37541962,8.55008602,507.45028687,5,8,1
1323443570.75259233,47.37542343,8.55008793,507.27587891,5,8,1
1323443570.80551696,47.37542343,8.55008793,507.30758667,5,8,1
1323443570.85353351,47.37542343,8.55008793,507.33929443,5,8,1
1323443570.90511632,47.37542343,8.55008793,507.37097168,5,8,1
1323443570.95752716,47.37542343,8.55008793,507.40264893,5,9,1
1323443571.00449252,47.37542343,8.55008888,507.21914673,5,9,1
1323443571.05253005,47.37542343,8.55008888,507.24984741,5,9,1
1323443571.10511804,47.37542343,8.55008888,507.28048706,5,9,1
1323443571.15264082,47.37542343,8.55008888,507.31115723,5,9,1
1323443571.20195889,47.37542343,8.55008888,507.34176636,5,9,1
1323443571.25250459,47.37542343,8.55008984,507.13781738,5,9,1
1323443571.30499554,47.37542343,8.55008984,507.16741943,5,9,1
1323443571.35353398,47.37542343,8.55008984,507.19696045,5,9,1
1323443571.40566611,47.37542343,8.55008984,507.22650146,5,9,1
1323443571.45266390,47.37542343,8.55008984,507.25601196,5,9,1
1323443571.50553918,47.37542343,8.55008984,507.03814697,5,9,1
1323443571.55357623,47.37542343,8.55008984,507.06655884,5,9,1
1323443571.60499144,47.37542343,8.55008984,507.09494019,5,9,1
1323443571.65251350,47.37542343,8.55008984,507.12329102,5,9,1
1323443571.70565939,47.37542343,8.55008984,507.15161133,5,9,1
1323443571.75355053,47.37542725,8.55009079,506.94778442,5,9,1
1323443571.80267382,47.37542725,8.55009079,506.95004272,5,9,1
1323443571.85271931,47.37542725,8.55009079,506.97720337,5,9,1
1323443571.90560889,47.37542725,8.55009079,507.00436401,5,9,1
1323443571.95259213,47.37542725,8.55009079,507.03149414,5,9,1
1323443572.00551677,47.37542725,8.55009079,506.79360962,5,9,1
1323443572.05273819,47.37542725,8.55009079,506.81954956,5,9,1
1323443572.10473561,47.37542725,8.55009079,506.84545898,5,9,1
1323443572.15360117,47.37542725,8.55009079,506.87133789,5,9,1
1323443572.20558047,47.37542725,8.55009079,506.89718628,5,9,1
1323443572.26151443,47.37542725,8.55008984,506.66262817,5,9,1
1323443572.30558681,47.37542725,8.55008984,506.68728638,5,9,1
1323443572.35680723,47.37542725,8.55008984,506.71194458,5,9,1
1323443572.40549207,47.37542725,8.55008984,506.73657227,5,9,1
1323443572.45353079,47.37542725,8.55008984,506.76116943,5,9,1
1323443572.50453997,47.37542725,8.55008984,506.53341675,5,9,1
1323443572.55351567,47.37542725,8.55008984,506.55688477,5,9,1
1323443572.60646558,47.37542725,8.55008984,506.58035278,5,9,1
1323443572.65258145,47.37542725,8.55008984,506.60375977,5,9,1
1323443572.70551443,47.37542725,8.55009079,506.62713623,5,9,1
1323443572.75263500,47.37543106,8.55009174,506.41387939,5,9,1
1323443572.80530143,47.37543106,8.55009174,506.43624878,5,9,1
1323443572.85332251,47.37543106,8.55009174,506.45858765,5,9,1
1323443572.90453458,47.37543106,8.55009270,506.48089600,5,9,1
1323443572.95354867,47.37543106,8.55009270,506.50317383,4,9,1
1323443573.00449634,47.37543106,8.55009270,506.29553223,4,9,1
1323443573.05255914,47.37543106,8.55009270,506.31683350,4,9,1
1323443573.10450864,47.37543106,8.55009270,506.33807373,4,9,1
1323443573.15265393,47.37543106,8.55009270,506.35931396,4,9,1
1323443573.20551610,47.37543106,8.55009270,506.38052368,4,9,1
1323443573.25256109,47.37543106,8.55009270,506.17211914,4,9,1
1323443573.30569196,47.37543106,8.55009365,506.19232178,4,9,1
1323443573.35377932,47.37543106,8.55009365,506.21252441,4,9,1
1323443573.40453458,47.37543106,8.55009365,506.23266602,4,9,1
1323443573.45255756,47.37543106,8.55009365,506.25280762,4,9,1
1323443573.50462556,47.37543106,8.55009365,506.04504395,4,9,1
1323443573.55628586,47.37543106,8.55009365,506.06417847,4,9,1
1323443573.60561109,47.37543106,8.55009365,506.08328247,4,9,1
1323443573.65251064,47.37543106,8.55009365,506.10235596,4,9,1
1323443573.70463181,47.37543106,8.55009365,506.12142944,4,9,1
1323443573.75356960,47.37543488,8.55009460,505.92553711,4,9,1
1323443573.80690384,47.37543488,8.55009460,505.94366455,4,9,1
1323443573.85260797,47.37543488,8.55009460,505.96176147,4,9,1
1323443573.90509367,47.37543488,8.55009460,505.97982788,4,9,1
1323443573.95253158,47.37543488,8.55009460,505.99783325,4,9,1
1323443574.00562716,47.37543488,8.55009460,505.81576538,4,9,1
1323443574.05243492,47.37543488,8.55009460,505.83291626,4,9,1
1323443574.10573077,47.37543488,8.55009460,505.85003662,4,9,1
1323443574.15360594,47.37543488,8.55009460,505.86709595,4,9,1
1323443574.20452619,47.37543488,8.55009460,505.88415527,4,9,1
1323443574.25282168,47.37543488,8.55009460,505.71435547,4,9,1
1323443574.30453825,47.37543488,8.55009460,505.73059082,4,9,1
1323443574.35364437,47.37543488,8.55009460,505.74682617,4,9,1
1323443574.40551448,47.37543488,8.55009460,505.76300049,4,9,1
1323443574.45293880,47.37543488,8.55009460,505.77917480,4,9,1
1323443574.50463605,47.37543869,8.55009556,505.62118530,4,9,1
1323443574.55354381,47.37543869,8.55009556,505.63656616,4,9,1
1323443574.60500407,47.37543869,8.55009556,505.65191650,4,9,1
1323443574.65253425,47.37543869,8.55009556,505.66726685,4,9,1
1323443574.70487595,47.37543869,8.55009556,505.68261719,4,9,1
1323443574.75256562,47.37543869,8.55009651,505.52947998,4,9,1
1323443574.80548048,47.37543869,8.55009651,505.54403687,4,9,1
1323443574.85288215,47.37543869,8.55009651,505.55856323,4,9,1
1323443574.90565157,47.37543869,8.55009651,505.57305908,4,9,1
1323443574.95355439,47.37543869,8.55009651,505.58752441,3,9,1
1323443575.00487876,47.37543869,8.55009556,505.44342041,3,9,1
1323443575.05264568,47.37543869,8.55009556,505.45718384,3,9,1
1323443575.10553646,47.37543869,8.55009556,505.47088623,3,9,1
1323443575.15263295,47.37543869,8.55009556,505.48455811,3,9,1
1323443575.20550394,47.37543869,8.55009556,505.49819946,3,9,1
1323443575.25355864,47.37543869,8.55009556,505.35134888,3,9,1
1323443575.30190253,47.37543869,8.55009556,505.36422729,3,9,1
1323443575.35356855,47.37543869,8.55009556,505.37707520,3,9,1
1323443575.41042709,47.37543869,8.55009556,505.38986206,3,9,1
1323443575.45366883,47.37543869,8.55009556,505.40264893,3,9,1
1323443575.50458527,47.37544250,8.55009460,505.26913452,3,9,1
1323443575.55365992,47.37544250,8.55009460,505.28125000,3,9,1
1323443575.60551620,47.37544250,8.55009460,505.29333496,3,9,1
1323443575.65351486,47.37544250,8.55009460,505.30538940,3,9,1
1323443575.70458746,47.37544250,8.55009460,505.31738281,3,9,1
1323443575.75734520,47.37544250,8.55009556,505.19970703,3,9,1
1323443575.80323005,47.37544250,8.55009556,505.21115112,3,9,1
1323443575.85520482,47.37544250,8.55009556,505.22256470,3,9,1
1323443575.90450382,47.37544250,8.55009556,505.23391724,3,9,1
1323443575.95528984,47.37544250,8.55009556,505.24526978,3,9,1
1323443576.00547624,47.37544250,8.55009651,505.13107300,3,9,1
1323443576.05361295,47.37544250,8.55009651,505.14184570,3,9,1
1323443576.10560417,47.37544250,8.55009651,505.15258789,3,9,1
1323443576.15358162,47.37544250,8.55009651,505.16329956,3,9,1
1323443576.20619011,47.37544250,8.55009651,505.17398071,3,9,1
1323443576.25253725,47.37544632,8.55009651,505.06402588,3,9,1
1323443576.30548334,47.37544632,8.55009651,505.07415771,3,9,1
1323443576.35351253,47.37544632,8.55009651,505.08425903,3,9,1
1323443576.40563512,47.37544632,8.55009651,505.09432983,3,9,1
1323443576.45250773,47.37544632,8.55009651,505.10437012,3,9,1
1323443576.50555706,47.37544632,8.55009556,505.00250244,3,9,1
1323443576.55356026,47.37544632,8.55009556,505.01202393,3,9,1
1323443576.60550141,47.37544632,8.55009556,505.02151489,3,9,1
1323443576.65271592,47.37544632,8.55009556,505.03097534,3,9,1
1323443576.70520616,47.37544632,8.55009556,505.04040527,3,9,1
1323443576.75254798,47.37544632,8.55009460,504.94375610,3,9,1
1323443576.80564499,47.37544632,8.55009460,504.95269775,3,9,1
1323443576.86464238,47.37544632,8.55009460,504.96157837,3,9,1
1323443576.90618730,47.37544632,8.55009460,504.97222900,3,9,1
1323443576.95359135,47.37544632,8.55009556,504.97927856,5,9,1
1323443577.00565624,47.37544632,8.55009460,504.90228271,5,9,1
1323443577.05317950,47.37544632,8.55009460,504.91076660,5,9,1
1323443577.11355209,47.37544632,8.55009460,504.91925049,5,9,1
1323443577.15264630,47.37544632,8.55009460,504.92938232,5,9,1
1323443577.20549202,47.37544632,8.55009460,504.93612671,5,9,1
1323443577.25366712,47.37544632,8.55009460,504.85424805,5,9,1
1323443577.30567956,47.37544632,8.55009460,504.86224365,5,9,1
1323443577.35356164,47.37544632,8.55009460,504.87020874,5,9,1
1323443577.40565872,47.37544632,8.55009460,504.87814331,5,9,1
1323443577.45269871,47.37544632,8.55009460,504.88604736,5,9,1
1323443577.50553346,47.37545013,8.55009270,504.81884766,5,9,1
1323443577.55365777,47.37545013,8.55009270,504.82641602,5,9,1
1323443577.60553288,47.37545013,8.55009270,504.83395386,5,9,1
1323443577.65253496,47.37545013,8.55009270,504.84146118,5,9,1
1323443577.70491052,47.37545013,8.55009270,504.84893799,5,9,1
1323443577.75359178,47.37545013,8.55009174,504.75973511,5,9,1
1323443577.80560589,47.37545013,8.55009174,504.76669312,5,9,1
1323443577.85372090,47.37545013,8.55009174,504.77365112,5,9,1
1323443577.90478349,47.37545013,8.55009174,504.78054810,5,9,1
1323443577.95259428,47.37545013,8.55009174,504.78744507,5,9,1
1323443578.00551772,47.37545013,8.55009079,504.70474243,5,9,1
1323443578.06571507,47.37545013,8.55009079,504.71124268,5,9,1
1323443578.10553622,47.37545013,8.55009079,504.71896362,5,9,1
1323443578.15349293,47.37545013,8.55009079,504.72412109,5,9,1
1323443578.20455146,47.37545013,8.55009079,504.73049927,5,9,1
1323443578.25260711,47.37545013,8.55008984,504.63677979,5,9,1
1323443578.30466676,47.37545013,8.55008984,504.64270020,5,9,1
1323443578.35269022,47.37545013,8.55008984,504.64859009,5,9,1
1323443578.40587711,47.37545013,8.55008984,504.65444946,5,9,1
1323443578.45353746,47.37545013,8.55008984,504.66024780,5,9,1
1323443578.50452447,47.37545395,8.55008888,504.60293579,5,9,1
1323443578.55358005,47.37545395,8.55008888,504.60852051,5,9,1
1323443578.60463357,47.37545395,8.55008888,504.61407471,5,9,1
1323443578.65256786,47.37545395,8.55008888,504.61959839,5,9,1
1323443578.70495892,47.37545395,8.55008888,504.62512207,5,9,1
1323443578.75664687,47.37545395,8.55008602,504.54733276,5,9,1
1323443578.80556726,47.37545395,8.55008602,504.55245972,5,9,1
1323443578.85251617,47.37545395,8.55008602,504.55752563,5,9,1
1323443578.90575480,47.37545395,8.55008602,504.56256104,5,9,1
1323443578.95361638,47.37545395,8.55008602,504.56759644,1,8,1
1323443579.00456691,47.37545395,8.55008411,504.49966431,1,8,1
1323443579.05256724,47.37545395,8.55008411,504.50439453,1,8,1
1323443579.10536695,47.37545395,8.55008411,504.50906372,1,8,1
1323443579.15255404,47.37545395,8.55008411,504.51376343,1,8,1
1323443579.20551133,47.37545395,8.55008411,504.51840210,1,8,1
1323443579.25257182,47.37545776,8.55008411,504.43560791,1,8,1
1323443579.30456495,47.37545776,8.55008411,504.43978882,1,8,1
1323443579.35356998,47.37545776,8.55008411,504.44396973,1,8,1
1323443579.40455580,47.37545776,8.55008411,504.44808960,1,8,1
1323443579.45252919,47.37545776,8.55008411,504.45220947,1,8,1
1323443579.50452566,47.37545776,8.55008316,504.37500000,1,8,1
1323443579.55358410,47.37545776,8.55008316,504.37869263,1,8,1
1323443579.60550308,47.37545776,8.55008316,504.38235474,1,8,1
1323443579.66521835,47.37545776,8.55008316,504.38598633,1,8,1
1323443579.70463490,47.37545776,8.55008316,504.39028931,1,8,1
1323443579.75357413,47.37545776,8.55007744,504.31588745,1,8,1
1323443579.80565405,47.37545776,8.55007744,504.31909180,1,8,1
1323443579.85253310,47.37545776,8.55007648,504.32229614,1,8,1
1323443579.91253614,47.37545776,8.55007648,504.32543945,1,8,1
1323443579.95255661,47.37545776,8.55007648,504.32919312,1,8,1
1323443580.00243163,47.37545776,8.55006981,504.25836182,1,8,1
1323443580.05255103,47.37545776,8.55006981,504.26110840,1,8,1
1323443580.10456657,47.37545776,8.55006886,504.26385498,1,8,1
1323443580.15356946,47.37545776,8.55006886,504.26654053,1,8,1
1323443580.20471621,47.37545776,8.55006886,504.26919556,1,8,1
1323443580.25257301,47.37545776,8.55006504,504.22451782,1,8,1
1323443580.31252384,47.37545776,8.55006504,504.22698975,1,8,1
1323443580.35255694,47.37545776,8.55006504,504.22988892,1,8,1
1323443580.40553975,47.37545776,8.55006409,504.23181152,1,8,1
1323443580.45287442,47.37545776,8.55006409,504.23416138,1,8,1
1323443580.50466490,47.37545776,8.55006504,504.17089844,1,8,1
1323443580.55305099,47.37545776,8.55006409,504.17288208,1,8,1
1323443580.60453320,47.37545776,8.55006409,504.17486572,1,8,1
1323443580.65314865,47.37545776,8.55006409,504.17678833,1,8,1
1323443580.70481086,47.37545776,8.55006313,504.17871094,1,8,1
1323443580.75578189,47.37546158,8.55006504,504.12017822,1,8,1
1323443580.80490327,47.37546158,8.55006504,504.12176514,1,8,1
1323443580.85252619,47.37546158,8.55006504,504.12332153,1,8,1
1323443580.90450048,47.37546158,8.55006409,504.12487793,1,8,1
1323443580.95351601,47.37546158,8.55006409,504.12637329,0,8,1
1323443581.00566268,47.37546158,8.55006695,504.07177734,0,8,1
1323443581.05351710,47.37546158,8.55006599,504.07299805,0,8,1
1323443581.10469270,47.37546158,8.55006599,504.07421875,0,8,1
1323443581.15253830,47.37546158,8.55006599,504.07540894,0,8,1
1323443581.20549631,47.37546158,8.55006599,504.07653809,0,8,1
1323443581.25677872,47.37546158,8.55006599,504.03692627,0,8,1
1323443581.30452514,47.37546158,8.55006599,504.03790283,0,8,1
1323443581.35357785,47.37546158,8.55006599,504.03887939,0,8,1
1323443581.40550351,47.37546158,8.55006599,504.03979492,0,8,1
1323443581.46162033,47.37546158,8.55006504,504.04071045,0,8,1
1323443581.50555944,47.37546539,8.55006409,504.01483154,0,8,1
1323443581.55264640,47.37546539,8.55006409,504.01562500,0,8,1
1323443581.60552096,47.37546539,8.55006409,504.01638794,0,8,1
1323443581.65260196,47.37546539,8.55006409,504.01715088,0,8,1
1323443581.70461988,47.37546539,8.55006313,504.01785278,0,8,1
1323443581.75359130,47.37546539,8.55006409,503.98229980,0,8,1
1323443581.80415225,47.37546539,8.55006409,503.98281860,0,8,1
1323443581.85357833,47.37546539,8.55006409,503.98330688,0,8,1
1323443581.91251874,47.37546539,8.55006313,503.98379517,0,8,1
1323443581.95352483,47.37546539,8.55006313,503.98431396,0,8,1
1323443582.00550151,47.37546539,8.55006409,503.94360352,0,8,1
1323443582.05256724,47.37546539,8.55006409,503.94378662,0,8,1
1323443582.10451102,47.37546539,8.55006313,503.94390869,0,8,1
1323443582.15351892,47.37546539,8.55006313,503.94403076,0,8,1
1323443582.20453954,47.37546539,8.55006313,503.94412231,0,8,1
1323443582.25352263,47.37546539,8.55006409,503.91000366,0,8,1
1323443582.30550027,47.37546539,8.55006409,503.90988159,0,8,1
1323443582.35355258,47.37546539,8.55006409,503.90975952,0,8,1
